| time (UTC) | temp C | wind direction | speed KPH | gust KPH | rain 1hr cm | rain 24hr cm | rain mn cm | humidity % | barometer mb |
| 20260506033108 | 10 | 195 | 11.3 | 19.3 | 0.00 | 0.00 | 0.00 | 90 | 1007.5 |
| 20260506031603 | 10 | 190 | 11.3 | 19.3 | 0.00 | 0.00 | 0.00 | 89 | 1007.6 |
| 20260506030113 | 10 | 214 | 9.7 | 14.5 | 0.00 | 0.00 | 0.00 | 90 | 1007.7 |
| 20260506024558 | 10 | 171 | 11.3 | 17.7 | 0.00 | 0.00 | 0.00 | 89 | 1007.9 |
| 20260506023057 | 11 | 176 | 11.3 | 17.7 | 0.00 | 0.00 | 0.00 | 88 | 1007.7 |
| 20260506021603 | 11 | 178 | 9.7 | 11.3 | 0.00 | 0.00 | 0.00 | 87 | 1007.9 |
| 20260506020056 | 11 | 187 | 4.8 | 14.5 | 0.00 | 0.00 | 0.00 | 86 | 1007.9 |
| 20260506014601 | 12 | 190 | 9.7 | 16.1 | 0.00 | 0.00 | 0.00 | 84 | 1007.9 |
| 20260506013055 | 11 | 198 | 12.9 | 17.7 | 0.00 | 0.00 | 0.00 | 85 | 1007.9 |
| 20260506011558 | 12 | 167 | 11.3 | 20.9 | 0.00 | 0.00 | 0.00 | 83 | 1007.8 |
| 20260506010059 | 12 | 203 | 9.7 | 17.7 | 0.00 | 0.00 | 0.00 | 82 | 1007.6 |
| 20260506004625 | 12 | 172 | 14.5 | 19.3 | 0.00 | 0.00 | 0.00 | 83 | 1007.3 |
| 20260506003056 | 12 | 197 | 16.1 | 25.7 | 0.00 | 0.00 | 0.00 | 84 | 1007.0 |
| 20260506001555 | 12 | 191 | 20.9 | 30.6 | 0.00 | 0.00 | 0.00 | 81 | 1006.3 |
| 20260506000052 | 15 | 143 | 4.8 | 11.3 | 0.00 | 0.00 | 0.00 | 75 | 1006.1 |
| 20260505234611 | 16 | 165 | 8.0 | 16.1 | 0.00 | 0.00 | 0.00 | 74 | 1006.5 |
| 20260505233046 | 15 | 160 | 4.8 | 17.7 | 0.00 | 0.00 | 0.00 | 78 | 1006.4 |
| 20260505231542 | 12 | 160 | 14.5 | 29.0 | 0.00 | 0.00 | 0.00 | 83 | 1005.9 |
| 20260505230045 | 12 | 152 | 9.7 | 29.0 | 0.00 | 0.00 | 0.00 | 84 | 1004.7 |
| 20260505224541 | 12 | 181 | 14.5 | 27.4 | 0.00 | 0.00 | 0.00 | 83 | 1004.5 |
| 20260505223054 | 12 | 199 | 14.5 | 33.8 | 0.00 | 0.00 | 0.00 | 83 | 1004.2 |
| 20260505221553 | 12 | 200 | 27.4 | 37.0 | 0.00 | 0.00 | 0.00 | 83 | 1003.9 |
| 20260505220038 | 12 | 192 | 17.7 | 35.4 | 0.00 | 0.00 | 0.00 | 82 | 1004.1 |
| 20260505214542 | 12 | 196 | 27.4 | 40.2 | 0.00 | 0.00 | 0.00 | 82 | 1003.9 |
| 20260505213037 | 12 | 184 | 29.0 | 41.8 | 0.00 | 0.00 | 0.00 | 82 | 1003.9 |
| 20260505211536 | 12 | 192 | 29.0 | 43.5 | 0.00 | 0.00 | 0.00 | 82 | 1003.8 |
| 20260505210036 | 12 | 192 | 25.7 | 35.4 | 0.00 | 0.00 | 0.00 | 85 | 1003.8 |
| 20260505204535 | 12 | 201 | 22.5 | 32.2 | 0.00 | 0.00 | 0.00 | 85 | 1003.9 |
| 20260505203036 | 12 | 188 | 22.5 | 35.4 | 0.00 | 0.00 | 0.00 | 85 | 1003.8 |
| 20260505201532 | 12 | 172 | 20.9 | 30.6 | 0.00 | 0.00 | 0.00 | 85 | 1004.1 |
| 20260505200034 | 12 | 191 | 25.7 | 37.0 | 0.00 | 0.00 | 0.00 | 84 | 1004.1 |
| 20260505194527 | 11 | 201 | 19.3 | 27.4 | 0.00 | 0.00 | 0.00 | 86 | 1004.4 |
| 20260505193026 | 11 | 204 | 17.7 | 27.4 | 0.00 | 0.00 | 0.00 | 86 | 1004.7 |
| 20260505191523 | 12 | 205 | 19.3 | 40.2 | 0.00 | 0.00 | 0.00 | 86 | 1005.2 |
| 20260505190022 | 11 | 172 | 20.9 | 29.0 | 0.00 | 0.00 | 0.00 | 87 | 1005.2 |
| 20260505184526 | 11 | 194 | 12.9 | 20.9 | 0.00 | 0.00 | 0.00 | 87 | 1005.3 |
| 20260505183037 | 11 | 184 | 12.9 | 27.4 | 0.00 | 0.00 | 0.00 | 87 | 1005.5 |
| 20260505181517 | 11 | 181 | 20.9 | 30.6 | 0.00 | 0.00 | 0.00 | 86 | 1005.6 |
| 20260505180016 | 11 | 212 | 22.5 | 30.6 | 0.00 | 0.00 | 0.00 | 87 | 1005.7 |
| 20260505174512 | 11 | 190 | 17.7 | 29.0 | 0.00 | 0.00 | 0.00 | 87 | 1005.9 |
| 20260505173019 | 11 | 191 | 19.3 | 25.7 | 0.00 | 0.00 | 0.00 | 87 | 1006.3 |
| 20260505171509 | 11 | 178 | 19.3 | 24.1 | 0.00 | 0.00 | 0.00 | 88 | 1006.4 |
| 20260505170010 | 11 | 200 | 19.3 | 33.8 | 0.00 | 0.00 | 0.00 | 85 | 1006.4 |
| 20260505164505 | 11 | 197 | 25.7 | 40.2 | 0.00 | 0.00 | 0.00 | 88 | 1006.8 |
| 20260505163004 | 10 | 189 | 20.9 | 29.0 | 0.00 | 0.00 | 0.00 | 89 | 1006.9 |
| 20260505161502 | 10 | 186 | 20.9 | 29.0 | 0.00 | 0.00 | 0.00 | 89 | 1007.2 |
| 20260505153100 | 10 | 179 | 14.5 | 20.9 | 0.00 | 0.00 | 0.00 | 91 | 1007.8 |
| 20260505151608 | 10 | 194 | 14.5 | 27.4 | 0.00 | 0.00 | 0.00 | 91 | 1008.4 |
| 20260505140109 | 10 | 189 | 20.9 | 27.4 | 0.00 | 0.00 | 0.00 | 90 | 1007.9 |
| 20260505124557 | 10 | 199 | 19.3 | 24.1 | 0.00 | 0.00 | 0.00 | 88 | 1007.9 |
| 20260505123047 | 10 | 186 | 14.5 | 20.9 | 0.00 | 0.00 | 0.00 | 89 | 1007.7 |
| 20260505121547 | 10 | 205 | 17.7 | 24.1 | 0.00 | 0.00 | 0.00 | 89 | 1007.9 |
| 20260505120051 | 10 | 186 | 16.1 | 20.9 | 0.00 | 0.00 | 0.00 | 88 | 1008.0 |
| 20260505114547 | 10 | 191 | 17.7 | 24.1 | 0.00 | 0.00 | 0.00 | 87 | 1008.2 |
| 20260505113043 | 10 | 186 | 12.9 | 17.7 | 0.00 | 0.00 | 0.00 | 89 | 1008.1 |
| 20260505111543 | 9 | 179 | 14.5 | 19.3 | 0.00 | 0.00 | 0.00 | 89 | 1008.2 |
| 20260505101542 | 8 | 195 | 8.0 | 11.3 | 0.00 | 0.00 | 0.00 | 91 | 1008.0 |
| 20260505100039 | 8 | 203 | 6.4 | 12.9 | 0.00 | 0.00 | 0.00 | 91 | 1007.8 |
| 20260505094535 | 8 | 204 | 6.4 | 12.9 | 0.00 | 0.00 | 0.00 | 91 | 1007.9 |
| 20260505093035 | 8 | 188 | 9.7 | 14.5 | 0.00 | 0.00 | 0.00 | 91 | 1007.9 |
| 20260505091531 | 8 | 199 | 8.0 | 11.3 | 0.00 | 0.00 | 0.00 | 91 | 1007.9 |
| 20260505090031 | 8 | 184 | 9.7 | 12.9 | 0.00 | 0.00 | 0.00 | 91 | 1008.1 |
| 20260505084540 | 8 | 199 | 6.4 | 12.9 | 0.00 | 0.00 | 0.00 | 89 | 1008.1 |
| 20260505083028 | 8 | 173 | 4.8 | 8.0 | 0.00 | 0.00 | 0.00 | 88 | 1008.1 |
| 20260505081525 | 8 | 182 | 0.0 | 11.3 | 0.00 | 0.00 | 0.00 | 87 | 1008.2 |
| 20260505080024 | 9 | 206 | 1.6 | 8.0 | 0.00 | 0.00 | 0.00 | 86 | 1008.2 |
| 20260505074522 | 9 | 175 | 3.2 | 11.3 | 0.00 | 0.00 | 0.00 | 86 | 1008.2 |
| 20260505073032 | 9 | 206 | 9.7 | 12.9 | 0.00 | 0.00 | 0.00 | 86 | 1008.1 |
| 20260505071520 | 9 | 220 | 4.8 | 12.9 | 0.00 | 0.00 | 0.00 | 86 | 1008.0 |
| 20260505070029 | 9 | 190 | 11.3 | 16.1 | 0.00 | 0.00 | 0.00 | 87 | 1007.8 |
| 20260505064514 | 9 | 203 | 6.4 | 14.5 | 0.00 | 0.00 | 0.00 | 86 | 1007.9 |
| 20260505063014 | 9 | 200 | 4.8 | 9.7 | 0.00 | 0.00 | 0.00 | 86 | 1007.9 |
| 20260505061507 | 10 | 178 | 4.8 | 9.7 | 0.00 | 0.00 | 0.00 | 86 | 1008.0 |
| 20260505060004 | 10 | 180 | 3.2 | 9.7 | 0.00 | 0.00 | 0.00 | 82 | 1007.9 |
| 20260505054504 | 10 | 219 | 3.2 | 8.0 | 0.00 | 0.00 | 0.00 | 82 | 1008.0 |
| 20260505053002 | 10 | 220 | 0.0 | 9.7 | 0.00 | 0.00 | 0.00 | 82 | 1007.9 |
| 20260505051502 | 11 | 198 | 6.4 | 14.5 | 0.00 | 0.00 | 0.00 | 79 | 1007.7 |
| 20260505041557 | 11 | 186 | 0.0 | 8.0 | 0.00 | 0.00 | 0.00 | 78 | 1007.2 |
| 20260505040054 | 11 | 178 | 9.7 | 16.1 | 0.00 | 0.00 | 0.00 | 78 | 1007.1 |
| 20260505034549 | 13 | 177 | 6.4 | 16.1 | 0.00 | 0.00 | 0.00 | 68 | 1007.0 |